Location: St. Louis
(38.6270°N, 90.1994°W)
Time: 20:51:43
(UTC-05:00)

ISS - Pass Details

Date: 04 August 2017
Orbit: 402 x 407 km, 51.6° (Epoch: 28 May)

Event Time Altitude Azimuth Distance (km) Brightness Sun altitude
Rises 23:06:53 0° 311° (NW) 2,317 1.2 -27.7°
Reaches altitude 10° 23:08:59 10° 316° (NW) 1,455 -0.1 -28.0°
Enters shadow 23:09:58 18° 320° (NW) 1,067 -0.9 -28.1°
